Location: Audignicourt
(49.4788°N, 3.1340°E)
Time: 13:22:45
(UTC+00:00)

Cosmos 1953 Rocket - Pass Details

Date: 15 May 2026
Orbit: 596 x 628 km, 82.5° (Epoch: 11 June)

Event Time Altitude Azimuth Distance (km) Brightness Sun altitude
Rises 22:12:06 0° 346° (NNW) 2,882 8.6 -18.5°
Reaches altitude 10° 22:14:22 10° 343° (NNW) 1,968 7.4 -18.7°
Maximum altitude 22:18:38 57° 265° (W) 714 3.9 -18.9°
Enters shadow 22:20:13 35° 203° (SSW) 988 4.2 -19.0°
